2016-024B

Last updated on April 11, 2016, 5:35 p.m. UTC

1 41453U 16024B   16102.29379685  .03963784  11744-4  26959-2 0  9993
2 41453  51.6678  31.0737 0071920  57.1259 303.6724 16.10001893   397

Satellite is not in orbit.